Time,TemperatureF,DewpointF,PressureIn,WindDirection,WindDirectionDegrees,WindSpeedMPH,WindSpeedGustMPH,Humidity,HourlyPrecipIn,Conditions,Clouds,dailyrainin,SolarRadiationWatts/m^2,SoftwareType,DateUTC
2013-02-09 00:11:00,28.0,26.0,-100.00,SW,231,1.0,11.0,91,0.00,,,0.00,0.000000,,2013-02-09 07:11:00,
2013-02-09 00:21:00,28.0,26.0,-100.00,SW,231,1.0,11.0,91,0.00,,,0.00,0.000000,,2013-02-09 07:21:00,
2013-02-09 00:31:00,28.0,26.0,-100.00,SW,231,1.0,11.0,91,0.00,,,0.00,0.000000,,2013-02-09 07:31:00,
2013-02-09 00:42:00,28.0,26.0,-100.00,SW,231,1.0,11.0,91,0.00,,,0.00,0.000000,,2013-02-09 07:42:00,
2013-02-09 01:11:00,28.0,25.0,-100.00,SSE,148,5.0,8.0,89,0.00,,,-99.99,0.000000,,2013-02-09 08:11:00,
2013-02-09 01:21:00,28.0,25.0,-100.00,SSE,148,5.0,8.0,89,0.00,,,-99.99,0.000000,,2013-02-09 08:21:00,
2013-02-09 01:31:00,28.0,25.0,-100.00,SSE,148,5.0,8.0,89,0.00,,,-99.99,0.000000,,2013-02-09 08:31:00,
2013-02-09 01:41:00,28.0,25.0,-100.00,SSE,148,5.0,8.0,89,0.00,,,-99.99,0.000000,,2013-02-09 08:41:00,
2013-02-09 02:11:00,28.0,22.0,-100.00,South,188,3.0,7.0,77,0.00,,,0.00,0.000000,,2013-02-09 09:11:00,
2013-02-09 02:21:00,28.0,22.0,-100.00,South,188,3.0,7.0,77,0.00,,,0.00,0.000000,,2013-02-09 09:21:00,
2013-02-09 02:31:00,28.0,22.0,-100.00,South,188,3.0,7.0,77,0.00,,,0.00,0.000000,,2013-02-09 09:31:00,
2013-02-09 02:41:00,28.0,22.0,-100.00,South,188,3.0,7.0,77,0.00,,,0.00,0.000000,,2013-02-09 09:41:00,
2013-02-09 03:11:00,28.0,18.0,-100.00,South,172,4.0,9.0,67,0.00,,,0.00,0.000000,,2013-02-09 10:11:00,
2013-02-09 03:21:00,28.0,18.0,-100.00,South,172,4.0,9.0,67,0.00,,,0.00,0.000000,,2013-02-09 10:21:00,
2013-02-09 03:31:00,28.0,18.0,-100.00,South,172,4.0,9.0,67,0.00,,,0.00,0.000000,,2013-02-09 10:31:00,
2013-02-09 03:41:00,28.0,18.0,-100.00,South,172,4.0,9.0,67,0.00,,,0.00,0.000000,,2013-02-09 10:41:00,
2013-02-09 04:11:00,27.0,20.0,-100.00,SW,228,3.0,11.0,75,0.00,,,0.00,0.000000,,2013-02-09 11:11:00,
2013-02-09 04:21:00,27.0,20.0,-100.00,SW,228,3.0,11.0,75,0.00,,,0.00,0.000000,,2013-02-09 11:21:00,
2013-02-09 04:31:00,27.0,20.0,-100.00,SW,228,3.0,11.0,75,0.00,,,0.00,0.000000,,2013-02-09 11:31:00,
2013-02-09 04:41:00,27.0,20.0,-100.00,SW,228,3.0,11.0,75,0.00,,,0.00,0.000000,,2013-02-09 11:41:00,
2013-02-09 05:11:00,25.0,22.0,-100.00,WSW,250,3.0,7.0,90,0.00,,,0.00,0.000000,,2013-02-09 12:11:00,
2013-02-09 05:21:00,25.0,22.0,-100.00,WSW,250,3.0,7.0,90,0.00,,,0.00,0.000000,,2013-02-09 12:21:00,
2013-02-09 05:32:00,25.0,22.0,-100.00,WSW,250,3.0,7.0,90,0.00,,,0.00,0.000000,,2013-02-09 12:32:00,
2013-02-09 05:42:00,25.0,22.0,-100.00,WSW,250,3.0,7.0,90,0.00,,,0.00,0.000000,,2013-02-09 12:42:00,
2013-02-09 06:11:00,25.0,23.0,-100.00,WNW,288,7.0,11.0,92,0.00,,,0.00,0.000000,,2013-02-09 13:11:00,
2013-02-09 06:21:00,25.0,23.0,-100.00,WNW,288,7.0,11.0,92,0.00,,,0.00,0.000000,,2013-02-09 13:21:00,
2013-02-09 06:31:00,25.0,23.0,-100.00,WNW,288,7.0,11.0,92,0.00,,,0.00,0.000000,,2013-02-09 13:31:00,
2013-02-09 06:42:00,25.0,23.0,-100.00,WNW,288,7.0,11.0,92,0.00,,,0.00,0.000000,,2013-02-09 13:42:00,
2013-02-09 07:11:00,23.0,21.0,-100.00,West,267,1.0,7.0,91,0.00,,,0.00,0.000000,,2013-02-09 14:11:00,
2013-02-09 07:21:00,23.0,21.0,-100.00,West,267,1.0,7.0,91,0.00,,,0.00,0.000000,,2013-02-09 14:21:00,
2013-02-09 07:31:00,23.0,21.0,-100.00,West,267,1.0,7.0,91,0.00,,,0.00,0.000000,,2013-02-09 14:31:00,
2013-02-09 07:41:00,23.0,21.0,-100.00,West,267,1.0,7.0,91,0.00,,,0.00,0.000000,,2013-02-09 14:41:00,
2013-02-09 08:11:00,21.0,18.0,-100.00,SSE,163,3.0,5.0,89,0.00,,,0.00,3.000000,,2013-02-09 15:11:00,
2013-02-09 08:21:00,21.0,18.0,-100.00,SSE,163,3.0,5.0,89,0.00,,,0.00,3.000000,,2013-02-09 15:21:00,
2013-02-09 08:31:00,21.0,18.0,-100.00,SSE,163,3.0,5.0,89,0.00,,,0.00,3.000000,,2013-02-09 15:31:00,
2013-02-09 08:41:00,21.0,18.0,-100.00,SSE,163,3.0,5.0,89,0.00,,,0.00,3.000000,,2013-02-09 15:41:00,
2013-02-09 09:11:00,25.0,22.0,-100.00,ESE,111,3.0,7.0,87,0.00,,,0.00,33.000000,,2013-02-09 16:11:00,
2013-02-09 09:22:00,25.0,22.0,-100.00,ESE,111,3.0,7.0,87,0.00,,,0.00,33.000000,,2013-02-09 16:22:00,
2013-02-09 09:31:00,25.0,22.0,-100.00,ESE,111,3.0,7.0,87,0.00,,,0.00,33.000000,,2013-02-09 16:31:00,
2013-02-09 09:41:00,25.0,22.0,-100.00,ESE,111,3.0,7.0,87,0.00,,,0.00,33.000000,,2013-02-09 16:41:00,
2013-02-09 10:11:00,30.0,24.0,-100.00,ESE,105,0.0,6.0,79,0.00,,,0.00,59.000000,,2013-02-09 17:11:00,
2013-02-09 10:21:00,30.0,24.0,-100.00,ESE,105,0.0,6.0,79,0.00,,,0.00,59.000000,,2013-02-09 17:21:00,
2013-02-09 10:32:00,30.0,24.0,-100.00,ESE,105,0.0,6.0,79,0.00,,,0.00,59.000000,,2013-02-09 17:32:00,
2013-02-09 10:41:00,30.0,24.0,-100.00,ESE,105,0.0,6.0,79,0.00,,,0.00,59.000000,,2013-02-09 17:41:00,
2013-02-09 11:12:00,33.0,23.0,-100.00,NNW,343,5.0,8.0,67,0.05,,,0.05,334.000000,,2013-02-09 18:12:00,
2013-02-09 11:23:00,33.0,23.0,-100.00,NNW,343,5.0,8.0,67,0.05,,,0.05,334.000000,,2013-02-09 18:23:00,
2013-02-09 11:31:00,33.0,23.0,-100.00,NNW,343,5.0,8.0,67,0.05,,,0.05,334.000000,,2013-02-09 18:31:00,
2013-02-09 11:41:00,33.0,23.0,-100.00,NNW,343,5.0,8.0,67,0.05,,,0.05,334.000000,,2013-02-09 18:41:00,
2013-02-09 12:11:00,29.0,22.0,-100.00,NNW,335,5.0,8.0,74,0.06,,,0.11,303.000000,,2013-02-09 19:11:00,
2013-02-09 12:22:00,29.0,22.0,-100.00,NNW,335,5.0,8.0,74,0.06,,,0.11,303.000000,,2013-02-09 19:22:00,
2013-02-09 12:31:00,29.0,22.0,-100.00,NNW,335,5.0,8.0,74,0.06,,,0.11,303.000000,,2013-02-09 19:31:00,
2013-02-09 12:41:00,29.0,22.0,-100.00,NNW,335,5.0,8.0,74,0.06,,,0.11,303.000000,,2013-02-09 19:41:00,
2013-02-09 13:11:00,32.0,22.0,-100.00,North,354,2.0,7.0,65,0.01,,,0.12,254.000000,,2013-02-09 20:11:00,
2013-02-09 13:21:00,32.0,22.0,-100.00,North,354,2.0,7.0,65,0.01,,,0.12,254.000000,,2013-02-09 20:21:00,
2013-02-09 13:31:00,32.0,22.0,-100.00,North,354,2.0,7.0,65,0.01,,,0.12,254.000000,,2013-02-09 20:31:00,
2013-02-09 13:41:00,32.0,22.0,-100.00,North,354,2.0,7.0,65,0.01,,,0.12,254.000000,,2013-02-09 20:41:00,
2013-02-09 14:11:00,32.0,19.0,-100.00,WNW,287,7.0,10.0,59,0.01,,,0.13,322.000000,,2013-02-09 21:11:00,
2013-02-09 14:21:00,32.0,19.0,-100.00,WNW,287,7.0,10.0,59,0.01,,,0.13,322.000000,,2013-02-09 21:21:00,
2013-02-09 14:31:00,32.0,19.0,-100.00,WNW,287,7.0,10.0,59,0.01,,,0.13,322.000000,,2013-02-09 21:31:00,
2013-02-09 14:41:00,32.0,19.0,-100.00,WNW,287,7.0,10.0,59,0.01,,,0.13,322.000000,,2013-02-09 21:41:00,
2013-02-09 15:11:00,30.0,17.0,-100.00,WNW,287,8.0,13.0,57,0.00,,,0.13,274.000000,,2013-02-09 22:11:00,
2013-02-09 15:21:00,30.0,17.0,-100.00,WNW,287,8.0,13.0,57,0.00,,,0.13,274.000000,,2013-02-09 22:21:00,
2013-02-09 15:31:00,30.0,17.0,-100.00,WNW,287,8.0,13.0,57,0.00,,,0.13,274.000000,,2013-02-09 22:31:00,
2013-02-09 15:41:00,30.0,17.0,-100.00,WNW,287,8.0,13.0,57,0.00,,,0.13,274.000000,,2013-02-09 22:41:00,
2013-02-09 16:11:00,30.0,16.0,-100.00,West,268,7.0,15.0,55,0.00,,,0.13,261.000000,,2013-02-09 23:11:00,
2013-02-09 16:21:00,30.0,16.0,-100.00,West,268,7.0,15.0,55,0.00,,,0.13,261.000000,,2013-02-09 23:21:00,
2013-02-09 16:31:00,30.0,16.0,-100.00,West,268,7.0,15.0,55,0.00,,,0.13,261.000000,,2013-02-09 23:31:00,
2013-02-09 16:41:00,30.0,16.0,-100.00,West,268,7.0,15.0,55,0.00,,,0.13,261.000000,,2013-02-09 23:41:00,
2013-02-09 17:21:00,32.0,16.0,-100.00,West,264,8.0,13.0,51,0.01,,,0.14,295.000000,,2013-02-10 00:21:00,
2013-02-09 17:32:00,32.0,16.0,-100.00,West,264,8.0,13.0,51,0.01,,,0.14,295.000000,,2013-02-10 00:32:00,
2013-02-09 17:41:00,32.0,16.0,-100.00,West,264,8.0,13.0,51,0.01,,,0.14,295.000000,,2013-02-10 00:41:00,
2013-02-09 18:11:00,26.0,15.0,-100.00,WSW,248,6.0,11.0,63,0.00,,,0.14,89.000000,,2013-02-10 01:11:00,
2013-02-09 18:21:00,26.0,15.0,-100.00,WSW,248,6.0,11.0,63,0.00,,,0.14,89.000000,,2013-02-10 01:21:00,
2013-02-09 18:31:00,26.0,15.0,-100.00,WSW,248,6.0,11.0,63,0.00,,,0.14,89.000000,,2013-02-10 01:31:00,
2013-02-09 18:41:00,26.0,15.0,-100.00,WSW,248,6.0,11.0,63,0.00,,,0.14,89.000000,,2013-02-10 01:41:00,
2013-02-09 19:11:00,25.0,14.0,-100.00,WSW,245,7.0,13.0,63,0.00,,,0.14,0.000000,,2013-02-10 02:11:00,
2013-02-09 19:22:00,25.0,14.0,-100.00,WSW,245,7.0,13.0,63,0.00,,,0.14,0.000000,,2013-02-10 02:22:00,
2013-02-09 19:31:00,25.0,14.0,-100.00,WSW,245,7.0,13.0,63,0.00,,,0.14,0.000000,,2013-02-10 02:31:00,
2013-02-09 19:41:00,25.0,14.0,-100.00,WSW,245,7.0,13.0,63,0.00,,,0.14,0.000000,,2013-02-10 02:41:00,
2013-02-09 20:11:00,22.0,18.0,-100.00,NW,324,1.0,13.0,86,0.00,,,0.14,0.000000,,2013-02-10 03:11:00,
2013-02-09 20:21:00,22.0,18.0,-100.00,NW,324,1.0,13.0,86,0.00,,,0.14,0.000000,,2013-02-10 03:21:00,
2013-02-09 20:32:00,22.0,18.0,-100.00,NW,324,1.0,13.0,86,0.00,,,0.14,0.000000,,2013-02-10 03:32:00,
2013-02-09 20:41:00,22.0,18.0,-100.00,NW,324,1.0,13.0,86,0.00,,,0.14,0.000000,,2013-02-10 03:41:00,
2013-02-09 21:11:00,22.0,20.0,-100.00,SW,225,1.0,4.0,91,0.00,,,0.14,0.000000,,2013-02-10 04:11:00,
2013-02-09 21:21:00,22.0,20.0,-100.00,SW,225,1.0,4.0,91,0.00,,,0.14,0.000000,,2013-02-10 04:21:00,
2013-02-09 21:32:00,22.0,20.0,-100.00,SW,225,1.0,4.0,91,0.00,,,0.14,0.000000,,2013-02-10 04:32:00,
2013-02-09 21:41:00,22.0,20.0,-100.00,SW,225,1.0,4.0,91,0.00,,,0.14,0.000000,,2013-02-10 04:41:00,
2013-02-09 22:11:00,21.0,19.0,-100.00,SSE,161,4.0,7.0,90,0.00,,,0.14,0.000000,,2013-02-10 05:11:00,
2013-02-09 22:22:00,21.0,19.0,-100.00,SSE,161,4.0,7.0,90,0.00,,,0.14,0.000000,,2013-02-10 05:22:00,
2013-02-09 22:31:00,21.0,19.0,-100.00,SSE,161,4.0,7.0,90,0.00,,,0.14,0.000000,,2013-02-10 05:31:00,
2013-02-09 22:41:00,21.0,19.0,-100.00,SSE,161,4.0,7.0,90,0.00,,,0.14,0.000000,,2013-02-10 05:41:00,
2013-02-09 23:11:00,22.0,15.0,-100.00,SW,215,7.0,11.0,73,0.00,,,0.14,0.000000,,2013-02-10 06:11:00,
2013-02-09 23:21:00,22.0,15.0,-100.00,SW,215,7.0,11.0,73,0.00,,,0.14,0.000000,,2013-02-10 06:21:00,
2013-02-09 23:32:00,22.0,15.0,-100.00,SW,215,7.0,11.0,73,0.00,,,0.14,0.000000,,2013-02-10 06:32:00,
2013-02-09 23:42:00,22.0,15.0,-100.00,SW,215,7.0,11.0,73,0.00,,,0.14,0.000000,,2013-02-10 06:42:00,